Mountain Home AFB, ID

3:58 PM MST on February 21, 2017 (GMT -0700)
Mountain Home Air Force Base

Weather History for KMUO - March, 2014

Change the Weather History Date:

Sunday, March 16, 2014

  Actual Average Record
Temperature  
Mean Temperature 52 °F 43 °F  
Max Temperature 70 °F 55 °F 76 °F (1916)
Min Temperature 33 °F 30 °F 8 °F (1917)
Degree Days  
Heating Degree Days 13 22  
Month to date heating degree days 305 390  
Cooling Degree Days 0 0  
Month to date cooling degree days 0 0  
Growing Degree Days 2 (Base 50)    
Moisture  
Dew Point 27 °F    
Average Humidity 46    
Maximum Humidity 78    
Minimum Humidity 18    
Precipitation  
Precipitation 0.00 in 0.04 in 1.19 in (1961)
Month to date precipitation 0.44 0.59  
Sea Level Pressure  
Sea Level Pressure 30.18 in    
Wind  
Wind Speed 9 mph (East)    
Max Wind Speed 15 mph    
Max Gust Speed -    
Visibility 10 miles    
Events      
T = Trace of Precipitation, MM = Missing Value Source: NWS Daily Summary

Daily Weather History Graph

Daily Weather History Graph

Search for Another Location

Airport or City:

Trip Planner

Search our weather history database for the weather conditions in past years. The results will help you decide how hot, cold, wet, or windy it might be!

Date:

Astronomy

Mar. 16, 2014 Rise Set
Actual Time 7:53 AM MDT 7:51 PM MDT
Civil Twilight 7:25 AM MDT 8:19 PM MDT
Nautical Twilight 6:52 AM MDT 8:52 PM MDT
Astronomical Twilight 6:18 AM MDT 9:26 PM MDT
Moon 8:14 PM MDT (3/16) 7:38 AM MDT (3/16)
Length of Visible Light 12h 54m
Length of Day
11h 57m
Full, 100% of the Moon is Illuminated
Mar 16
Full
Mar 23
Last Quarter
Mar 30
New
Apr 7
First Quarter
Apr 15
Full

Hourly Weather History & Observations

Time (MDT) Temp. Windchill Dew Point Humidity Pressure Visibility Wind Dir Wind Speed Gust Speed Precip Events Conditions
12:58 AM 37.0 °F 31.6 °F 25.7 °F 64% 30.41 in 10.0 mi East 6.9 mph - N/A   Clear
1:58 AM 36.1 °F 28.7 °F 26.4 °F 68% 30.39 in 10.0 mi East 10.4 mph - N/A   Clear
2:58 AM 36.7 °F 28.9 °F 25.9 °F 65% 30.38 in 10.0 mi East 11.5 mph - N/A   Clear
3:58 AM 39.7 °F 31.5 °F 22.8 °F 51% 30.36 in 10.0 mi East 15.0 mph - N/A   Partly Cloudy
4:58 AM 37.0 °F 29.8 °F 24.1 °F 59% 30.34 in 10.0 mi East 10.4 mph - N/A   Clear
5:58 AM 34.3 °F 26.5 °F 26.4 °F 73% 30.34 in 10.0 mi East 10.4 mph - N/A   Clear
6:58 AM 34.0 °F 26.0 °F 27.3 °F 77% 30.34 in 10.0 mi East 10.4 mph - N/A   Clear
7:58 AM 33.6 °F 25.6 °F 27.5 °F 78% 30.34 in 10.0 mi East 10.4 mph - N/A   Clear
8:58 AM 39.4 °F 32.7 °F 27.1 °F 62% 30.35 in 10.0 mi East 10.4 mph - N/A   Clear
9:58 AM 46.0 °F 40.2 °F 26.6 °F 47% 30.34 in 10.0 mi East 12.7 mph - N/A   Clear
10:58 AM 52.0 °F - 26.2 °F 37% 30.31 in 10.0 mi ESE 13.8 mph - N/A   Clear
11:58 AM 56.7 °F - 25.3 °F 30% 30.28 in 10.0 mi ESE 11.5 mph - N/A   Clear
12:58 PM 61.2 °F - 24.1 °F 24% 30.24 in 10.0 mi East 8.1 mph - N/A   Partly Cloudy
1:58 PM 64.6 °F - 24.1 °F 21% 30.19 in 10.0 mi East 3.5 mph - N/A   Clear
2:58 PM 66.7 °F - 23.5 °F 19% 30.14 in 10.0 mi NNW 3.5 mph - N/A   Clear
3:58 PM 68.9 °F - 23.9 °F 18% 30.08 in 10.0 mi NNE 1.2 mph - N/A   Clear
4:58 PM 69.3 °F - 24.4 °F 19% 30.05 in 10.0 mi NE 3.5 mph - N/A   Clear
5:58 PM 70.0 °F - 23.9 °F 18% 29.99 in 10.0 mi ENE 6.9 mph - N/A   Clear
6:58 PM 67.1 °F - 29.1 °F 24% 29.97 in 10.0 mi SE 4.6 mph - N/A   Clear
7:58 PM 58.8 °F - 30.9 °F 35% 29.94 in 10.0 mi ESE 11.5 mph - N/A   Clear
8:58 PM 53.1 °F - 30.9 °F 43% 29.91 in 10.0 mi East 6.9 mph - N/A   Clear
9:58 PM 50.7 °F - 32.4 °F 49% 29.88 in 10.0 mi East 5.8 mph - N/A   Clear
10:58 PM 48.9 °F - 32.4 °F 53% 29.85 in 10.0 mi East 5.8 mph - N/A   Clear
11:58 PM 46.8 °F - 34.2 °F 62% 29.82 in 10.0 mi East 5.8 mph - N/A   Clear